Escanaba, MI

7:21 AM EST on February 24, 2018 (GMT -0500)
Delta County

Weather History for KESC - January, 2011

Change the Weather History Date:

Wednesday, January 5, 2011

  Actual Average Record
Temperature  
Mean Temperature 10 °F -  
Max Temperature 17 °F 23 °F 44 °F (2007)
Min Temperature 3 °F 6 °F -15 °F (1968)
Degree Days  
Heating Degree Days 55    
Moisture  
Dew Point 1 °F    
Average Humidity 67    
Maximum Humidity 78    
Minimum Humidity 53    
Precipitation  
Precipitation 0.00 in - - ()
Sea Level Pressure  
Sea Level Pressure 29.88 in    
Wind  
Wind Speed 6 mph (WSW)    
Max Wind Speed 10 mph    
Max Gust Speed -    
Visibility 10 miles    
Events      
Averages and records for this station are not official NWS values.
T = Trace of Precipitation, MM = Missing Value Source: NWS Daily Summary

Daily Weather History Graph

Daily Weather History Graph

Search for Another Location

Airport or City:

Trip Planner

Search our weather history database for the weather conditions in past years. The results will help you decide how hot, cold, wet, or windy it might be!

Date:

Astronomy

Jan. 05, 2011 Rise Set
Actual Time 8:29 AM EST 5:18 PM EST
Civil Twilight 7:55 AM EST 5:52 PM EST
Nautical Twilight 7:17 AM EST 6:30 PM EST
Astronomical Twilight 6:41 AM EST 7:06 PM EST
Moon 9:10 AM EST (1/5) 6:58 PM EST (1/5)
Length of Visible Light 9h 57m
Length of Day
8h 49m
New Moon, 2% of the Moon is Illuminated
Jan 5
New Moon
Jan 12
First Quarter
Jan 19
Full
Jan 26
Last Quarter
Feb 2
New

Hourly Weather History & Observations

Time (EST) Temp. Windchill Dew Point Humidity Pressure Visibility Wind Dir Wind Speed Gust Speed Precip Events Conditions
12:15 AM 6.8 °F -3.5 °F -2.2 °F 67% 29.94 in 10.0 mi West 5.8 mph - N/A   Clear
12:35 AM 6.8 °F -2.0 °F -2.2 °F 67% 29.94 in 10.0 mi West 4.6 mph - N/A   Clear
12:55 AM 6.8 °F -3.5 °F -2.2 °F 67% 29.94 in 10.0 mi West 5.8 mph - N/A   Clear
1:15 AM 6.8 °F -3.5 °F -2.2 °F 67% 29.94 in 10.0 mi West 5.8 mph - N/A   Clear
1:35 AM 6.8 °F -5.9 °F -2.2 °F 67% 29.93 in 10.0 mi West 8.1 mph - N/A   Clear
1:55 AM 6.8 °F -5.9 °F -2.2 °F 67% 29.94 in 10.0 mi West 8.1 mph - N/A   Clear
2:15 AM 6.8 °F -4.8 °F -2.2 °F 67% 29.94 in 10.0 mi West 6.9 mph - N/A   Clear
2:35 AM 6.8 °F -3.5 °F -2.2 °F 67% 29.94 in 10.0 mi West 5.8 mph - N/A   Clear
2:55 AM 6.8 °F -3.5 °F -2.2 °F 67% 29.94 in 10.0 mi West 5.8 mph - N/A   Clear
3:35 AM 5.0 °F -8.1 °F -2.2 °F 72% 29.93 in 10.0 mi West 8.1 mph - N/A   Clear
3:55 AM 5.0 °F -6.9 °F -2.2 °F 72% 29.93 in 10.0 mi WNW 6.9 mph - N/A   Clear
4:15 AM 3.2 °F -10.3 °F -4.0 °F 72% 29.92 in 10.0 mi West 8.1 mph - N/A   Clear
4:35 AM 5.0 °F -9.1 °F -4.0 °F 66% 29.92 in 10.0 mi West 9.2 mph - N/A   Clear
4:55 AM 3.2 °F -9.1 °F -4.0 °F 72% 29.92 in 10.0 mi West 6.9 mph - N/A   Clear
5:15 AM 3.2 °F -9.1 °F -4.0 °F 72% 29.92 in 10.0 mi West 6.9 mph - N/A   Clear
5:35 AM 3.2 °F -7.8 °F -4.0 °F 72% 29.91 in 10.0 mi WNW 5.8 mph - N/A   Clear
5:55 AM 3.2 °F -9.1 °F -5.8 °F 66% 29.91 in 10.0 mi West 6.9 mph - N/A   Clear
6:15 AM 3.2 °F -7.8 °F -4.0 °F 72% 29.92 in 10.0 mi West 5.8 mph - N/A   Clear
6:35 AM 3.2 °F -6.2 °F -4.0 °F 72% 29.92 in 10.0 mi West 4.6 mph - N/A   Clear
6:55 AM 3.2 °F -6.2 °F -4.0 °F 72% 29.93 in 10.0 mi West 4.6 mph - N/A   Clear
7:15 AM 3.2 °F -6.2 °F -4.0 °F 72% 29.93 in 10.0 mi West 4.6 mph - N/A   Clear
7:35 AM 3.2 °F - -4.0 °F 72% 29.93 in 10.0 mi Calm Calm - N/A   Clear
7:55 AM 3.2 °F - -2.2 °F 78% 29.93 in 10.0 mi Calm Calm - N/A   Clear
8:15 AM 3.2 °F -4.2 °F -2.2 °F 78% 29.92 in 10.0 mi SSE 3.5 mph - N/A   Scattered Clouds
8:35 AM 5.0 °F -2.1 °F -2.2 °F 72% 29.92 in 10.0 mi South 3.5 mph - N/A   Mostly Cloudy
8:55 AM 3.2 °F -4.2 °F -2.2 °F 78% 29.92 in 10.0 mi SSW 3.5 mph - N/A   Scattered Clouds
9:15 AM 3.2 °F -4.2 °F -4.0 °F 72% 29.92 in 9.0 mi West 3.5 mph - N/A   Clear
9:35 AM 5.0 °F -5.6 °F -2.2 °F 72% 29.92 in 10.0 mi WSW 5.8 mph - N/A   Clear
9:55 AM 6.8 °F -5.9 °F -2.2 °F 67% 29.92 in 10.0 mi West 8.1 mph - N/A   Scattered Clouds
10:15 AM 8.6 °F -3.7 °F -0.4 °F 67% 29.92 in 10.0 mi West 8.1 mph - N/A   Mostly Cloudy
10:35 AM 8.6 °F -1.3 °F -2.2 °F 62% 29.92 in 10.0 mi West 5.8 mph - N/A   Overcast
10:55 AM 10.4 °F 0.8 °F 1.4 °F 67% 29.92 in 10.0 mi WSW 5.8 mph - N/A   Overcast
11:15 AM 10.4 °F 0.8 °F -0.4 °F 62% 29.91 in 10.0 mi SW 5.8 mph - N/A   Overcast
11:35 AM 12.2 °F 2.9 °F 1.4 °F 62% 29.90 in 10.0 mi SW 5.8 mph - N/A   Overcast
11:55 AM 14.0 °F 5.1 °F 1.4 °F 57% 29.89 in 10.0 mi SW 5.8 mph - N/A   Overcast
12:15 PM 15.8 °F 6.1 °F 3.2 °F 58% 29.87 in 10.0 mi SSW 6.9 mph - N/A   Overcast
12:35 PM 15.8 °F 5.1 °F 3.2 °F 58% 29.86 in 10.0 mi South 8.1 mph - N/A   Overcast
12:55 PM 15.8 °F 7.2 °F 1.4 °F 53% 29.85 in 10.0 mi SSE 5.8 mph - N/A   Overcast
1:15 PM 15.8 °F 6.1 °F 1.4 °F 53% 29.84 in 10.0 mi SSW 6.9 mph - N/A   Mostly Cloudy
1:35 PM 15.8 °F 7.2 °F 1.4 °F 53% 29.83 in 10.0 mi South 5.8 mph - N/A   Mostly Cloudy
1:55 PM 17.6 °F 6.4 °F 3.2 °F 53% 29.81 in 10.0 mi SSE 9.2 mph - N/A   Overcast
2:15 PM 17.6 °F 5.7 °F 5.0 °F 58% 29.81 in 10.0 mi South 10.4 mph - N/A   Mostly Cloudy
2:35 PM 17.6 °F 6.4 °F 5.0 °F 58% 29.81 in 10.0 mi SSW 9.2 mph - N/A   Mostly Cloudy
2:55 PM 17.6 °F 7.3 °F 5.0 °F 58% 29.80 in 10.0 mi SW 8.1 mph - N/A   Overcast
3:15 PM 17.6 °F 6.4 °F 6.8 °F 63% 29.80 in 10.0 mi SSW 9.2 mph - N/A   Overcast
3:35 PM 17.6 °F 7.3 °F 6.8 °F 63% 29.79 in 10.0 mi SSW 8.1 mph - N/A   Mostly Cloudy
3:55 PM 17.6 °F 8.2 °F 8.6 °F 68% 29.79 in 10.0 mi SSW 6.9 mph - N/A   Partly Cloudy
4:15 PM 17.6 °F 7.3 °F 8.6 °F 68% 29.79 in 10.0 mi SSW 8.1 mph - N/A   Mostly Cloudy
4:35 PM 17.6 °F 8.2 °F 8.6 °F 68% 29.78 in 10.0 mi SSW 6.9 mph - N/A   Overcast
4:55 PM 17.6 °F 9.3 °F 8.6 °F 68% 29.78 in 10.0 mi South 5.8 mph - N/A   Overcast
5:15 PM 17.6 °F 7.3 °F 8.6 °F 68% 29.78 in 10.0 mi SSW 8.1 mph - N/A   Overcast
5:35 PM 17.6 °F 7.3 °F 8.6 °F 68% 29.77 in 10.0 mi SSW 8.1 mph - N/A   Overcast
5:55 PM 17.6 °F 10.7 °F 8.6 °F 68% 29.77 in 5.0 mi SSW 4.6 mph - N/A   Overcast
6:15 PM 17.6 °F 12.3 °F 8.6 °F 68% 29.76 in 10.0 mi SW 3.5 mph - N/A   Scattered Clouds
6:35 PM 15.8 °F 7.2 °F 6.8 °F 68% 29.76 in 10.0 mi SSW 5.8 mph - N/A   Partly Cloudy
6:55 PM 15.8 °F 8.6 °F 8.6 °F 73% 29.75 in 10.0 mi SSW 4.6 mph - N/A   Scattered Clouds
7:15 PM 15.8 °F 7.2 °F 8.6 °F 73% 29.74 in 9.0 mi WSW 5.8 mph - N/A   Overcast
7:35 PM 15.8 °F 6.1 °F 8.6 °F 73% 29.75 in 10.0 mi West 6.9 mph - N/A   Overcast
7:55 PM 17.6 °F 8.2 °F 10.4 °F 73% 29.75 in 9.0 mi WSW 6.9 mph - N/A   Mostly Cloudy
8:15 PM 17.6 °F 9.3 °F 10.4 °F 73% 29.74 in 8.0 mi WSW 5.8 mph - N/A   Overcast
8:35 PM 17.6 °F 9.3 °F 10.4 °F 73% 29.74 in 5.0 mi WSW 5.8 mph - N/A   Overcast
8:55 PM 17.6 °F 8.2 °F 10.4 °F 73% 29.73 in 2.5 mi WSW 6.9 mph - N/A   Overcast
9:35 PM 17.6 °F 9.3 °F 10.4 °F 73% 29.72 in 2.5 mi SW 5.8 mph - N/A   Overcast
9:55 PM 17.6 °F 10.7 °F 10.4 °F 73% 29.72 in 4.0 mi WSW 4.6 mph - N/A   Overcast
10:15 PM 15.8 °F 7.2 °F 10.4 °F 79% 29.71 in 6.0 mi WSW 5.8 mph - N/A   Overcast
10:35 PM 15.8 °F 6.1 °F 10.4 °F 79% 29.71 in 8.0 mi West 6.9 mph - N/A   Overcast
10:55 PM 15.8 °F 7.2 °F 10.4 °F 79% 29.70 in 8.0 mi West 5.8 mph - N/A   Overcast
11:15 PM 15.8 °F 8.6 °F 8.6 °F 73% 29.70 in 8.0 mi West 4.6 mph - N/A   Overcast
11:35 PM 15.8 °F 4.2 °F 8.6 °F 73% 29.69 in 9.0 mi West 9.2 mph - N/A   Overcast
11:55 PM 15.8 °F 5.1 °F 8.6 °F 73% 29.69 in 8.0 mi West 8.1 mph - N/A   Overcast